User: anonymous   Login
Location: Rounton
(54.4000°N, 1.3500°W)
Time: 17:35:32
(UTC+00:00)
Language:

A-11 Canister half - Orbit

View from above orbital plane
View from above orbital plane
View from above satellite
View from above satellite

Ground track
Ground track

The orbit data is extracted from the following two-line orbital elements,

1 00053U 60009E   21339.92723923 -.00000055  00000-0  28938-3 0  9992
2 00053  47.2791  44.5686 0100582 226.2748 132.9677 12.17265853733918
Epoch (UTC): 05 December 2021 22:15:13
Eccentricity: 0.0100582
inclination: 47.2791°
perigee height: 1524 km
apogee height: 1685 km
right ascension of ascending node: 44.5686°
argument of perigee: 226.2748°
revolutions per day: 12.17265853
mean anomaly at epoch: 132.9677°
orbit number at epoch: 73391

The dashed part of the orbit path shows where the satellite is in the earth's shadow,  

DLR